CZ-6A DEB, 61363

Orbit data source: Space-Track

CZ-6A DEB, 61363 is space debris in LEO originally from a launch on Tue, 06 Aug 2024 UTC launched from the Taiyaun Space Center, China (TSC). Debris objects in space refer to the collection of defunct objects orbiting the Earth. Examples of debris include non-operational satellites, rocket bodies, and fragments generated from explosions, collisions, or faulty payload assembly.

Loading next visibility...
Identifier
61363, 2024-140WC
Orbit
LEO
Country
Flag of CNCN / PRC
Related business
Manufacturer
SAST
Mission
Spacecraft
Bus & Motor
Unknown
Mass
Unknown
Launch date (UTC)
2024-08-06 (2 years ago)
Launch vehicle
Unknown
Launch site
Taiyaun Space Center, China (TSC)
Object type
Payload
Rocket body
Debris
Shape & HBR
Unknown shape, 0.1 m
Radar Cross Section
Medium (>0.1 m² and <1 m²)

Expand to show TLE details & history
Last TLE update: 15 hours ago

TLE from 15 hours ago
0 CZ-6A DEB
1 61363U 24140WC  26171.33538777  .00000880  00000-0  35653-3 0  9991
2 61363  89.0695 279.0459 0039778 103.9657 256.5965 14.26488642 93273
Epoch: 2026-06-20T08:02Z
TLE epoch observation values (Epoch: 2026-06-20T08:02:57.503Z)
Latitude
-0.00002°
Longitude
-110.24518°
Altitude
813.286 km
Speed
7.443 km/s
True Right ascension
18h 36m 11s
True Declination
0° 00' 00"
Sunlit
Object was in full shadow at epoch
Visualization orbit readout
Latitude
Unknown
Longitude
Unknown
Altitude
Unknown
Speed
Unknown
Apparent Right ascension
Unknown
Apparent Declination
Unknown
Sunlit
N/A
Visualization observer readout
Local Sidereal Time
10:17:11
Azimuth
Unknown
Elevation
Unknown
Doppler factor
Unknown
Orbital elements
Apogee altitude
828.988 km
Perigee altitude
771.879 km
Semi-major axis
7,178.57 km
Eccentricity
0.00398
Inclination
89.0695°
RAAN
279.0459°
Arg. of periapsis
103.9657°
True anomaly
256.15361°
Mean anomaly
256.5965°
Eccentric anomaly
256.375°
Mean motion
3.5685 °/min
Orbital period
100.88 mins
BSTAR
0.00035653
Loading maneuver chart data...
Computing Atmospheric mass density...
Loading historical data...
Loading historical data...
Loading historical data...
Loading historical data...
Loading historical data...
Loading historical data...
Loading historical data...

Documentation

Showing up to 5 results
|